Location: Aalen
(48.8330°N, 10.1000°E)
Time: 19:54:48
(UTC+02:00)

COSMOS 2251 DEB - Pass Details

Date: 20 January 2022
Orbit: 755 x 791 km, 74.0° (Epoch: 27 May)

Event Time Altitude Azimuth Distance (km) Brightness Sun altitude
Rises 18:27:00 0° 209° (SSW) 3,218 ? -14.3°
Reaches altitude 10° 18:29:23 10° 211° (SSW) 2,292 ? -14.7°
Maximum altitude 18:34:33 69° 295° (WNW) 815 ? -15.5°
Drops below altitude 10° 18:39:44 10° 19° (NNE) 2,295 ? -16.4°
Enters shadow 18:40:26 - 20° (NNE) 2,560 ? -16.5°
